Time,TemperatureF,DewpointF,PressureIn,WindDirection,WindDirectionDegrees,WindSpeedMPH,WindSpeedGustMPH,Humidity,HourlyPrecipIn,Conditions,Clouds,dailyrainin,SolarRadiationWatts/m^2,SoftwareType,DateUTC
2013-03-16 00:00:00,22.4,20.2,29.92,NNW,339,2.0,5.0,91,0.00,,---,0.00,0.00,VWS V14.01,2013-03-16 05:00:00,
2013-03-16 00:10:00,22.3,20.1,29.92,NW,306,5.0,8.0,91,0.00,,---,0.00,0.00,VWS V14.01,2013-03-16 05:10:00,
2013-03-16 00:15:00,22.2,19.7,29.92,North,9,5.0,7.0,90,0.00,,---,0.00,0.00,VWS V14.01,2013-03-16 05:15:00,
2013-03-16 00:20:00,22.0,19.5,29.92,North,355,2.0,7.0,90,0.00,,---,0.00,0.00,VWS V14.01,2013-03-16 05:20:00,
2013-03-16 00:25:00,22.0,19.5,29.93,NNE,14,2.0,5.0,90,0.00,,---,0.00,0.00,VWS V14.01,2013-03-16 05:25:00,
2013-03-16 00:30:00,22.0,19.5,29.92,NNW,340,3.0,12.0,90,0.00,,---,0.00,0.00,VWS V14.01,2013-03-16 05:30:00,
2013-03-16 00:35:00,21.8,19.3,29.92,NNW,335,2.0,12.0,90,0.00,,---,0.00,0.00,VWS V14.01,2013-03-16 05:35:00,
2013-03-16 00:40:00,21.8,19.3,29.93,NNW,346,4.0,6.0,90,0.00,,---,0.00,0.00,VWS V14.01,2013-03-16 05:40:00,
2013-03-16 00:45:00,21.7,19.2,29.93,NNE,21,5.0,6.0,90,0.00,,---,0.00,0.00,VWS V14.01,2013-03-16 05:45:00,
2013-03-16 00:50:00,21.7,19.2,29.94,NNW,343,3.0,7.0,90,0.00,,---,0.00,0.00,VWS V14.01,2013-03-16 05:50:00,
2013-03-16 01:00:00,21.8,19.3,29.93,NNW,342,3.0,7.0,90,0.00,,---,0.00,0.00,VWS V14.01,2013-03-16 06:00:00,
2013-03-16 01:05:00,21.8,19.3,29.93,NNW,344,2.0,9.0,90,0.00,,---,0.00,0.00,VWS V14.01,2013-03-16 06:05:00,
2013-03-16 01:10:00,21.7,19.2,29.93,NW,313,2.0,10.0,90,0.00,,---,0.00,0.00,VWS V14.01,2013-03-16 06:10:00,
2013-03-16 01:15:00,21.6,19.1,29.94,North,5,2.0,9.0,90,0.00,,---,0.00,0.00,VWS V14.01,2013-03-16 06:15:00,
2013-03-16 01:20:00,21.5,18.8,29.94,North,11,7.0,10.0,89,0.00,,---,0.00,0.00,VWS V14.01,2013-03-16 06:20:00,
2013-03-16 01:25:00,21.5,18.8,29.94,North,355,4.0,7.0,89,0.00,,---,0.00,0.00,VWS V14.01,2013-03-16 06:25:00,
2013-03-16 01:30:00,21.4,18.7,29.94,North,355,9.0,9.0,89,0.00,,---,0.00,0.00,VWS V14.01,2013-03-16 06:30:00,
2013-03-16 01:35:00,21.3,18.6,29.94,NNE,18,2.0,9.0,89,0.00,,---,0.00,0.00,VWS V14.01,2013-03-16 06:35:00,
2013-03-16 01:40:00,21.3,18.6,29.94,NE,35,4.0,10.0,89,0.00,,---,0.00,0.00,VWS V14.01,2013-03-16 06:40:00,
2013-03-16 01:45:00,21.2,18.5,29.95,NNW,348,4.0,10.0,89,0.00,,---,0.00,0.00,VWS V14.01,2013-03-16 06:45:00,
2013-03-16 01:50:00,21.1,18.4,29.95,North,355,4.0,9.0,89,0.00,,---,0.00,0.00,VWS V14.01,2013-03-16 06:50:00,
2013-03-16 01:55:00,21.0,18.3,29.95,NW,307,2.0,12.0,89,0.00,,---,0.00,0.00,VWS V14.01,2013-03-16 06:55:00,
2013-03-16 02:00:00,20.8,18.1,29.95,NNW,332,5.0,10.0,89,0.00,,---,0.00,0.00,VWS V14.01,2013-03-16 07:00:00,
2013-03-16 02:05:00,20.7,18.0,29.95,NW,326,5.0,10.0,89,0.00,,---,0.00,0.00,VWS V14.01,2013-03-16 07:05:00,
2013-03-16 02:10:00,20.5,17.5,29.95,North,360,4.0,7.0,88,0.00,,---,0.00,0.00,VWS V14.01,2013-03-16 07:10:00,
2013-03-16 02:15:00,20.3,17.3,29.96,North,360,2.0,11.0,88,0.00,,---,0.00,0.00,VWS V14.01,2013-03-16 07:15:00,
2013-03-16 02:20:00,20.1,17.1,29.96,NNW,348,2.0,11.0,88,0.00,,---,0.00,0.00,VWS V14.01,2013-03-16 07:20:00,
2013-03-16 02:25:00,20.0,17.0,29.96,NNE,17,2.0,9.0,88,0.00,,---,0.00,0.00,VWS V14.01,2013-03-16 07:25:00,
2013-03-16 02:30:00,19.9,16.9,29.96,North,5,1.0,7.0,88,0.00,,---,0.00,0.00,VWS V14.01,2013-03-16 07:30:00,
2013-03-16 02:35:00,19.8,16.8,29.96,North,360,2.0,9.0,88,0.00,,---,0.00,0.00,VWS V14.01,2013-03-16 07:35:00,
2013-03-16 02:40:00,19.8,16.8,29.96,NW,326,5.0,6.0,88,0.00,,---,0.00,0.00,VWS V14.01,2013-03-16 07:40:00,
2013-03-16 02:45:00,19.7,16.7,29.96,North,350,1.0,7.0,88,0.00,,---,0.00,0.00,VWS V14.01,2013-03-16 07:45:00,
2013-03-16 02:50:00,19.7,16.7,29.97,North,5,6.0,10.0,88,0.00,,---,0.00,0.00,VWS V14.01,2013-03-16 07:50:00,
2013-03-16 02:55:00,19.7,16.5,29.96,North,360,3.0,11.0,87,0.00,,---,0.00,0.00,VWS V14.01,2013-03-16 07:55:00,
2013-03-16 03:00:00,19.7,16.5,29.96,NW,324,4.0,8.0,87,0.00,,---,0.00,0.00,VWS V14.01,2013-03-16 08:00:00,
2013-03-16 03:05:00,19.7,16.5,29.96,NNW,344,2.0,5.0,87,0.00,,---,0.00,0.00,VWS V14.01,2013-03-16 08:05:00,
2013-03-16 03:10:00,19.7,16.5,29.96,North,360,0.0,6.0,87,0.00,,---,0.00,0.00,VWS V14.01,2013-03-16 08:10:00,
2013-03-16 03:15:00,19.7,16.5,29.97,NNE,21,1.0,9.0,87,0.00,,---,0.00,0.00,VWS V14.01,2013-03-16 08:15:00,
2013-03-16 03:20:00,19.7,16.5,29.97,North,355,2.0,5.0,87,0.00,,---,0.00,0.00,VWS V14.01,2013-03-16 08:20:00,
2013-03-16 03:25:00,19.7,16.5,29.97,North,360,4.0,10.0,87,0.00,,---,0.00,0.00,VWS V14.01,2013-03-16 08:25:00,
2013-03-16 03:30:00,19.6,16.1,29.97,NNE,32,14.0,14.0,86,0.00,,---,0.00,0.00,VWS V14.01,2013-03-16 08:30:00,
2013-03-16 03:35:00,19.5,16.0,29.97,North,355,3.0,14.0,86,0.00,,---,0.00,0.00,VWS V14.01,2013-03-16 08:35:00,
2013-03-16 03:40:00,19.5,15.7,29.98,NNE,16,3.0,13.0,85,0.00,,---,0.00,0.00,VWS V14.01,2013-03-16 08:40:00,
2013-03-16 03:45:00,19.6,15.8,29.98,North,11,7.0,7.0,85,0.00,,---,0.00,0.00,VWS V14.01,2013-03-16 08:45:00,
2013-03-16 03:50:00,19.5,15.7,29.99,North,355,2.0,7.0,85,0.00,,---,0.00,0.00,VWS V14.01,2013-03-16 08:50:00,
2013-03-16 03:55:00,19.6,15.8,29.99,NNW,340,4.0,5.0,85,0.00,,---,0.00,0.00,VWS V14.01,2013-03-16 08:55:00,
2013-03-16 04:00:00,19.6,15.6,29.98,North,355,2.0,6.0,84,0.00,,---,0.00,0.00,VWS V14.01,2013-03-16 09:00:00,
2013-03-16 04:05:00,19.7,15.7,29.98,NNE,19,5.0,7.0,84,0.00,,---,0.00,0.00,VWS V14.01,2013-03-16 09:05:00,
2013-03-16 04:10:00,19.7,15.7,29.98,North,5,5.0,6.0,84,0.00,,---,0.00,0.00,VWS V14.01,2013-03-16 09:10:00,
2013-03-16 04:15:00,19.7,15.7,29.98,North,350,5.0,12.0,84,0.00,,---,0.00,0.00,VWS V14.01,2013-03-16 09:15:00,
2013-03-16 04:20:00,19.7,15.7,29.99,NNW,329,2.0,12.0,84,0.00,,---,0.00,0.00,VWS V14.01,2013-03-16 09:20:00,
2013-03-16 04:25:00,19.7,15.7,29.99,North,360,3.0,4.0,84,0.00,,---,0.00,0.00,VWS V14.01,2013-03-16 09:25:00,
2013-03-16 04:30:00,19.7,15.7,29.99,NNE,16,2.0,5.0,84,0.00,,---,0.00,0.00,VWS V14.01,2013-03-16 09:30:00,
2013-03-16 04:35:00,19.7,15.7,30.00,NNE,20,5.0,9.0,84,0.00,,---,0.00,0.00,VWS V14.01,2013-03-16 09:35:00,
2013-03-16 04:45:00,19.7,15.4,30.00,NNW,340,4.0,10.0,83,0.00,,---,0.00,0.00,VWS V14.01,2013-03-16 09:45:00,
2013-03-16 04:50:00,19.7,15.7,30.01,NNE,17,4.0,7.0,84,0.00,,---,0.00,0.00,VWS V14.01,2013-03-16 09:50:00,
2013-03-16 04:55:00,19.7,15.4,30.01,North,360,4.0,7.0,83,0.00,,---,0.00,0.00,VWS V14.01,2013-03-16 09:55:00,
2013-03-16 05:00:00,19.5,15.2,30.02,North,355,3.0,8.0,83,0.00,,---,0.00,0.00,VWS V14.01,2013-03-16 10:00:00,
2013-03-16 05:05:00,19.5,15.2,30.02,NW,325,1.0,9.0,83,0.00,,---,0.00,0.00,VWS V14.01,2013-03-16 10:05:00,
2013-03-16 05:10:00,19.4,17.0,30.03,North,355,1.0,9.0,90,0.00,,---,0.00,0.00,VWS V14.01,2013-03-16 10:10:00,
2013-03-16 05:15:00,19.4,14.8,30.03,NNE,19,5.0,10.0,82,0.00,,---,0.00,0.00,VWS V14.01,2013-03-16 10:15:00,
2013-03-16 05:20:00,19.4,14.8,30.03,North,355,4.0,7.0,82,0.00,,---,0.00,0.00,VWS V14.01,2013-03-16 10:20:00,
2013-03-16 05:25:00,19.3,14.7,30.03,North,355,2.0,11.0,82,0.00,,---,0.00,0.00,VWS V14.01,2013-03-16 10:25:00,
2013-03-16 05:30:00,19.3,14.7,30.03,NNW,345,3.0,10.0,82,0.00,,---,0.00,0.00,VWS V14.01,2013-03-16 10:30:00,
2013-03-16 05:35:00,19.2,14.6,30.04,NNE,19,1.0,10.0,82,0.00,,---,0.00,0.00,VWS V14.01,2013-03-16 10:35:00,
2013-03-16 05:40:00,19.2,14.9,30.04,NNW,345,3.0,6.0,83,0.00,,---,0.00,0.00,VWS V14.01,2013-03-16 10:40:00,
2013-03-16 05:45:00,19.1,14.8,30.04,North,360,10.0,10.0,83,0.00,,---,0.00,0.00,VWS V14.01,2013-03-16 10:45:00,
2013-03-16 05:50:00,19.0,14.7,30.04,North,355,1.0,10.0,83,0.00,,---,0.00,0.00,VWS V14.01,2013-03-16 10:50:00,
2013-03-16 05:55:00,18.9,14.6,30.04,NNW,346,2.0,6.0,83,0.00,,---,0.00,0.00,VWS V14.01,2013-03-16 10:55:00,
2013-03-16 06:00:00,18.7,14.4,30.04,North,360,1.0,6.0,83,0.00,,---,0.00,0.00,VWS V14.01,2013-03-16 11:00:00,
2013-03-16 06:10:00,18.3,14.0,30.05,NNW,347,1.0,6.0,83,0.00,,---,0.00,0.00,VWS V14.01,2013-03-16 11:10:00,
2013-03-16 06:15:00,18.1,13.8,30.06,North,360,4.0,9.0,83,0.00,,---,0.00,0.00,VWS V14.01,2013-03-16 11:15:00,
2013-03-16 06:20:00,18.0,13.7,30.06,NW,315,2.0,5.0,83,0.00,,---,0.00,0.00,VWS V14.01,2013-03-16 11:20:00,
2013-03-16 06:25:00,17.9,13.6,30.06,NNW,348,2.0,4.0,83,0.00,,---,0.00,0.00,VWS V14.01,2013-03-16 11:25:00,
2013-03-16 06:30:00,17.7,13.4,30.06,NNW,340,4.0,5.0,83,0.00,,---,0.00,0.00,VWS V14.01,2013-03-16 11:30:00,
2013-03-16 06:35:00,17.6,13.3,30.06,North,360,3.0,4.0,83,0.00,,---,0.00,0.00,VWS V14.01,2013-03-16 11:35:00,
2013-03-16 06:40:00,17.4,13.1,30.07,NNW,342,3.0,4.0,83,0.00,,---,0.00,0.00,VWS V14.01,2013-03-16 11:40:00,
2013-03-16 06:45:00,17.2,12.9,30.07,NNW,343,3.0,3.0,83,0.00,,---,0.00,0.00,VWS V14.01,2013-03-16 11:45:00,
2013-03-16 06:50:00,17.1,13.1,30.08,NW,325,1.0,3.0,84,0.00,,---,0.00,0.00,VWS V14.01,2013-03-16 11:50:00,
2013-03-16 06:55:00,16.9,12.9,30.08,NW,317,7.0,7.0,84,0.00,,---,0.00,0.00,VWS V14.01,2013-03-16 11:55:00,
2013-03-16 07:00:00,16.9,12.9,30.09,NNW,341,5.0,7.0,84,0.00,,---,0.00,0.00,VWS V14.01,2013-03-16 12:00:00,
2013-03-16 07:05:00,16.8,12.8,30.09,NNW,344,2.0,6.0,84,0.00,,---,0.00,0.00,VWS V14.01,2013-03-16 12:05:00,
2013-03-16 07:10:00,16.7,12.7,30.09,NW,322,2.0,5.0,84,0.00,,---,0.00,0.00,VWS V14.01,2013-03-16 12:10:00,
2013-03-16 07:15:00,16.5,12.5,30.10,NW,306,3.0,3.0,84,0.00,,---,0.00,0.00,VWS V14.01,2013-03-16 12:15:00,
2013-03-16 07:20:00,16.4,12.7,30.10,NNW,331,7.0,9.0,85,0.00,,---,0.00,0.00,VWS V14.01,2013-03-16 12:20:00,
2013-03-16 07:25:00,16.3,12.3,30.10,NNW,335,6.0,8.0,84,0.00,,---,0.00,7.00,VWS V14.01,2013-03-16 12:25:00,
2013-03-16 07:30:00,16.1,12.4,30.10,North,360,0.0,6.0,85,0.00,,---,0.00,11.00,VWS V14.01,2013-03-16 12:30:00,
2013-03-16 07:35:00,16.0,12.3,30.10,NNW,327,0.0,5.0,85,0.00,,---,0.00,12.00,VWS V14.01,2013-03-16 12:35:00,
2013-03-16 07:40:00,15.8,12.1,30.11,North,355,3.0,5.0,85,0.00,,---,0.00,18.00,VWS V14.01,2013-03-16 12:40:00,
2013-03-16 07:45:00,15.8,12.1,30.11,NNW,347,2.0,5.0,85,0.00,,---,0.00,21.00,VWS V14.01,2013-03-16 12:45:00,
2013-03-16 07:50:00,15.7,12.0,30.11,NNW,347,2.0,6.0,85,0.00,,---,0.00,26.00,VWS V14.01,2013-03-16 12:50:00,
2013-03-16 07:55:00,15.7,12.0,30.11,North,349,2.0,7.0,85,0.00,,---,0.00,40.00,VWS V14.01,2013-03-16 12:55:00,
2013-03-16 08:00:00,15.7,12.0,30.12,NNW,327,3.0,6.0,85,0.00,,---,0.00,84.00,VWS V14.01,2013-03-16 13:00:00,
2013-03-16 08:05:00,15.9,12.2,30.12,NNW,328,2.0,5.0,85,0.00,,---,0.00,98.00,VWS V14.01,2013-03-16 13:05:00,
2013-03-16 08:10:00,16.2,12.5,30.12,North,350,5.0,7.0,85,0.00,,---,0.00,114.00,VWS V14.01,2013-03-16 13:10:00,
2013-03-16 08:15:00,16.4,12.7,30.12,NNW,346,1.0,7.0,85,0.00,,---,0.00,127.00,VWS V14.01,2013-03-16 13:15:00,
2013-03-16 08:20:00,16.6,12.9,30.12,North,5,1.0,9.0,85,0.00,,---,0.00,146.00,VWS V14.01,2013-03-16 13:20:00,
2013-03-16 08:25:00,16.9,12.9,30.12,NNW,348,2.0,5.0,84,0.00,,---,0.00,160.00,VWS V14.01,2013-03-16 13:25:00,
2013-03-16 08:30:00,17.2,13.2,30.13,NNW,342,4.0,6.0,84,0.00,,---,0.00,174.00,VWS V14.01,2013-03-16 13:30:00,
2013-03-16 08:35:00,17.3,13.0,30.12,North,350,5.0,5.0,83,0.00,,---,0.00,190.00,VWS V14.01,2013-03-16 13:35:00,
2013-03-16 08:40:00,17.4,13.1,30.13,NNE,18,6.0,7.0,83,0.00,,---,0.00,202.00,VWS V14.01,2013-03-16 13:40:00,
2013-03-16 08:45:00,17.5,12.9,30.13,NNW,338,2.0,6.0,82,0.00,,---,0.00,214.00,VWS V14.01,2013-03-16 13:45:00,
2013-03-16 08:50:00,17.7,13.1,30.13,NNW,346,2.0,5.0,82,0.00,,---,0.00,229.00,VWS V14.01,2013-03-16 13:50:00,
2013-03-16 08:55:00,18.0,13.4,30.14,NW,312,4.0,7.0,82,0.00,,---,0.00,244.00,VWS V14.01,2013-03-16 13:55:00,
2013-03-16 09:00:00,18.1,13.3,30.13,WNW,295,7.0,7.0,81,0.00,,---,0.00,260.00,VWS V14.01,2013-03-16 14:00:00,
2013-03-16 09:05:00,18.2,13.4,30.13,NW,323,2.0,7.0,81,0.00,,---,0.00,272.00,VWS V14.01,2013-03-16 14:05:00,
2013-03-16 09:10:00,18.4,13.6,30.13,NW,306,1.0,6.0,81,0.00,,---,0.00,285.00,VWS V14.01,2013-03-16 14:10:00,
2013-03-16 09:15:00,18.6,13.5,30.13,NNW,340,4.0,6.0,80,0.00,,---,0.00,299.00,VWS V14.01,2013-03-16 14:15:00,
2013-03-16 09:20:00,18.4,13.3,30.14,NNW,346,5.0,9.0,80,0.00,,---,0.00,313.00,VWS V14.01,2013-03-16 14:20:00,
2013-03-16 09:25:00,18.3,13.2,30.14,West,276,4.0,10.0,80,0.00,,---,0.00,329.00,VWS V14.01,2013-03-16 14:25:00,
2013-03-16 09:30:00,18.4,13.3,30.14,NNW,344,4.0,6.0,80,0.00,,---,0.00,343.00,VWS V14.01,2013-03-16 14:30:00,
2013-03-16 09:35:00,18.9,13.8,30.14,NNW,346,7.0,7.0,80,0.00,,---,0.00,360.00,VWS V14.01,2013-03-16 14:35:00,
2013-03-16 09:40:00,18.8,13.4,30.14,NNW,346,11.0,11.0,79,0.00,,---,0.00,360.00,VWS V14.01,2013-03-16 14:40:00,
2013-03-16 09:45:00,18.9,13.5,30.14,North,360,4.0,11.0,79,0.00,,---,0.00,345.00,VWS V14.01,2013-03-16 14:45:00,
2013-03-16 09:50:00,19.3,13.6,30.14,NNW,346,3.0,7.0,78,0.00,,---,0.00,267.00,VWS V14.01,2013-03-16 14:50:00,
2013-03-16 09:55:00,19.3,13.6,30.14,North,5,5.0,7.0,78,0.00,,---,0.00,427.00,VWS V14.01,2013-03-16 14:55:00,
2013-03-16 10:00:00,19.3,13.3,30.14,NNW,338,3.0,9.0,77,0.00,,---,0.00,425.00,VWS V14.01,2013-03-16 15:00:00,
2013-03-16 10:05:00,19.6,13.9,30.14,NNE,22,7.0,10.0,78,0.00,,---,0.00,439.00,VWS V14.01,2013-03-16 15:05:00,
2013-03-16 10:10:00,19.4,13.1,30.14,North,360,4.0,10.0,76,0.00,,---,0.00,454.00,VWS V14.01,2013-03-16 15:10:00,
2013-03-16 10:15:00,19.7,13.4,30.14,North,355,4.0,7.0,76,0.00,,---,0.00,466.00,VWS V14.01,2013-03-16 15:15:00,
2013-03-16 10:20:00,20.2,14.2,30.14,NNW,343,3.0,5.0,77,0.00,,---,0.00,483.00,VWS V14.01,2013-03-16 15:20:00,
2013-03-16 10:25:00,20.5,13.9,30.14,NW,325,4.0,9.0,75,0.00,,---,0.00,492.00,VWS V14.01,2013-03-16 15:25:00,
2013-03-16 10:30:00,20.6,13.9,30.14,WNW,296,6.0,6.0,75,0.00,,---,0.00,540.00,VWS V14.01,2013-03-16 15:30:00,
2013-03-16 10:35:00,20.4,13.8,30.14,North,351,3.0,8.0,75,0.00,,---,0.00,545.00,VWS V14.01,2013-03-16 15:35:00,
2013-03-16 10:40:00,20.4,13.4,30.15,NNE,14,5.0,7.0,74,0.00,,---,0.00,605.00,VWS V14.01,2013-03-16 15:40:00,
2013-03-16 10:45:00,20.8,14.1,30.15,NW,318,1.0,7.0,75,0.00,,---,0.00,638.00,VWS V14.01,2013-03-16 15:45:00,
2013-03-16 10:50:00,21.0,13.7,30.15,NW,317,4.0,10.0,73,0.00,,---,0.00,262.00,VWS V14.01,2013-03-16 15:50:00,
2013-03-16 10:55:00,21.0,14.0,30.14,NW,315,3.0,8.0,74,0.00,,---,0.00,276.00,VWS V14.01,2013-03-16 15:55:00,
2013-03-16 11:00:00,21.3,14.3,30.15,NW,314,5.0,10.0,74,0.00,,---,0.00,633.00,VWS V14.01,2013-03-16 16:00:00,
2013-03-16 11:05:00,21.7,14.4,30.14,NNW,347,3.0,7.0,73,0.00,,---,0.00,650.00,VWS V14.01,2013-03-16 16:05:00,
2013-03-16 11:10:00,21.7,14.4,30.14,North,360,5.0,7.0,73,0.00,,---,0.00,733.00,VWS V14.01,2013-03-16 16:10:00,
2013-03-16 11:15:00,22.1,15.1,30.14,NW,319,2.0,6.0,74,0.00,,---,0.00,387.00,VWS V14.01,2013-03-16 16:15:00,
2013-03-16 11:20:00,22.6,15.3,30.14,NNW,331,2.0,5.0,73,0.00,,---,0.00,223.00,VWS V14.01,2013-03-16 16:20:00,
2013-03-16 11:25:00,22.5,14.9,30.14,NW,317,1.0,6.0,72,0.00,,---,0.00,708.00,VWS V14.01,2013-03-16 16:25:00,
2013-03-16 11:30:00,22.8,15.1,30.14,NW,316,1.0,8.0,72,0.00,,---,0.00,693.00,VWS V14.01,2013-03-16 16:30:00,
2013-03-16 11:35:00,23.4,15.4,30.14,NW,313,5.0,10.0,71,0.00,,---,0.00,642.00,VWS V14.01,2013-03-16 16:35:00,
2013-03-16 11:40:00,23.9,15.9,30.14,NNW,329,1.0,5.0,71,0.01,,---,0.01,830.00,VWS V14.01,2013-03-16 16:40:00,
2013-03-16 11:45:00,24.4,16.4,30.14,NW,321,4.0,5.0,71,0.01,,---,0.01,315.00,VWS V14.01,2013-03-16 16:45:00,
2013-03-16 11:50:00,24.8,16.8,30.14,SW,233,4.0,6.0,71,0.01,,---,0.01,1014.00,VWS V14.01,2013-03-16 16:50:00,
2013-03-16 11:55:00,25.0,16.9,30.14,West,275,1.0,5.0,71,0.02,,---,0.02,455.00,VWS V14.01,2013-03-16 16:55:00,
2013-03-16 12:00:00,24.9,16.2,30.14,NNW,340,5.0,7.0,69,0.02,,---,0.02,346.00,VWS V14.01,2013-03-16 17:00:00,
2013-03-16 12:05:00,23.9,15.6,30.14,NW,323,3.0,7.0,70,0.02,,---,0.02,207.00,VWS V14.01,2013-03-16 17:05:00,
2013-03-16 12:10:00,24.4,16.4,30.14,WNW,288,4.0,5.0,71,0.02,,---,0.02,816.00,VWS V14.01,2013-03-16 17:10:00,
2013-03-16 12:15:00,24.7,15.7,30.14,NW,306,6.0,9.0,68,0.02,,---,0.02,877.00,VWS V14.01,2013-03-16 17:15:00,
2013-03-16 12:20:00,24.6,16.5,30.14,NW,321,1.0,7.0,71,0.02,,---,0.02,889.00,VWS V14.01,2013-03-16 17:20:00,
2013-03-16 12:25:00,24.7,16.3,30.15,NNW,345,4.0,10.0,70,0.02,,---,0.02,889.00,VWS V14.01,2013-03-16 17:25:00,
2013-03-16 12:30:00,24.0,15.3,30.15,WNW,284,1.0,5.0,69,0.02,,---,0.02,650.00,VWS V14.01,2013-03-16 17:30:00,
2013-03-16 12:35:00,24.6,16.5,30.15,WSW,244,11.0,15.0,71,0.03,,---,0.03,886.00,VWS V14.01,2013-03-16 17:35:00,
2013-03-16 12:40:00,24.5,16.1,30.15,WNW,302,7.0,13.0,70,0.03,,---,0.03,895.00,VWS V14.01,2013-03-16 17:40:00,
2013-03-16 12:45:00,24.6,15.9,30.16,West,265,3.0,7.0,69,0.02,,---,0.03,881.00,VWS V14.01,2013-03-16 17:45:00,
2013-03-16 12:50:00,24.5,15.5,30.16,WNW,288,2.0,11.0,68,0.02,,---,0.03,504.00,VWS V14.01,2013-03-16 17:50:00,
2013-03-16 12:55:00,24.2,15.5,30.16,NNW,348,2.0,11.0,69,0.02,,---,0.03,782.00,VWS V14.01,2013-03-16 17:55:00,
2013-03-16 13:00:00,24.4,16.0,30.16,WNW,296,4.0,8.0,70,0.01,,---,0.03,789.00,VWS V14.01,2013-03-16 18:00:00,
2013-03-16 13:05:00,24.4,15.0,30.16,NW,313,5.0,10.0,67,0.01,,---,0.03,803.00,VWS V14.01,2013-03-16 18:05:00,
2013-03-16 13:10:00,24.6,15.9,30.16,WNW,303,3.0,6.0,69,0.02,,---,0.04,754.00,VWS V14.01,2013-03-16 18:10:00,
2013-03-16 13:15:00,25.3,15.9,30.16,WSW,256,2.0,10.0,67,0.02,,---,0.04,798.00,VWS V14.01,2013-03-16 18:15:00,
2013-03-16 13:20:00,25.4,16.3,30.16,WNW,299,6.0,7.0,68,0.02,,---,0.04,793.00,VWS V14.01,2013-03-16 18:20:00,
2013-03-16 13:25:00,25.7,15.9,30.16,WNW,286,5.0,10.0,66,0.02,,---,0.04,795.00,VWS V14.01,2013-03-16 18:25:00,
2013-03-16 13:30:00,25.7,15.9,30.16,North,355,4.0,6.0,66,0.02,,---,0.04,796.00,VWS V14.01,2013-03-16 18:30:00,
2013-03-16 13:35:00,24.7,14.6,30.16,NW,316,1.0,11.0,65,0.02,,---,0.04,782.00,VWS V14.01,2013-03-16 18:35:00,
2013-03-16 13:40:00,25.6,16.9,30.16,NW,306,4.0,6.0,69,0.01,,---,0.04,798.00,VWS V14.01,2013-03-16 18:40:00,
2013-03-16 13:45:00,26.2,16.4,30.15,NW,315,5.0,6.0,66,0.01,,---,0.04,789.00,VWS V14.01,2013-03-16 18:45:00,
2013-03-16 13:50:00,25.7,15.6,30.15,WNW,302,4.0,9.0,65,0.01,,---,0.04,802.00,VWS V14.01,2013-03-16 18:50:00,
2013-03-16 13:55:00,25.7,15.6,30.15,NNW,337,1.0,6.0,65,0.01,,---,0.04,796.00,VWS V14.01,2013-03-16 18:55:00,
2013-03-16 14:00:00,25.6,15.1,30.15,West,281,3.0,9.0,64,0.01,,---,0.04,809.00,VWS V14.01,2013-03-16 19:00:00,
2013-03-16 14:05:00,25.3,14.5,30.16,WSW,246,1.0,7.0,63,0.01,,---,0.04,824.00,VWS V14.01,2013-03-16 19:05:00,
2013-03-16 14:10:00,26.0,16.2,30.15,West,266,3.0,7.0,66,0.01,,---,0.04,791.00,VWS V14.01,2013-03-16 19:10:00,
2013-03-16 14:15:00,26.3,15.4,30.15,WNW,291,7.0,10.0,63,0.00,,---,0.04,768.00,VWS V14.01,2013-03-16 19:15:00,
2013-03-16 14:20:00,25.9,14.7,30.16,NW,315,4.0,9.0,62,0.00,,---,0.04,751.00,VWS V14.01,2013-03-16 19:20:00,
2013-03-16 14:25:00,25.9,15.1,30.15,NW,326,13.0,13.0,63,0.00,,---,0.04,791.00,VWS V14.01,2013-03-16 19:25:00,
2013-03-16 14:30:00,26.4,15.2,30.15,NW,323,4.0,13.0,62,0.01,,---,0.05,740.00,VWS V14.01,2013-03-16 19:30:00,
2013-03-16 14:35:00,26.3,15.1,30.15,WNW,296,2.0,9.0,62,0.01,,---,0.05,728.00,VWS V14.01,2013-03-16 19:35:00,
2013-03-16 14:40:00,26.5,14.5,30.14,North,350,4.0,11.0,60,0.01,,---,0.05,721.00,VWS V14.01,2013-03-16 19:40:00,
2013-03-16 14:45:00,26.4,14.8,30.14,WNW,296,5.0,8.0,61,0.01,,---,0.05,712.00,VWS V14.01,2013-03-16 19:45:00,
2013-03-16 14:50:00,26.2,15.3,30.14,WSW,238,9.0,9.0,63,0.01,,---,0.05,707.00,VWS V14.01,2013-03-16 19:50:00,
2013-03-16 14:55:00,26.2,13.8,30.14,NW,304,2.0,9.0,59,0.01,,---,0.05,696.00,VWS V14.01,2013-03-16 19:55:00,
2013-03-16 15:00:00,26.2,14.2,30.14,NW,306,4.0,12.0,60,0.01,,---,0.05,689.00,VWS V14.01,2013-03-16 20:00:00,
2013-03-16 15:05:00,26.2,14.6,30.14,WSW,244,4.0,5.0,61,0.01,,---,0.05,682.00,VWS V14.01,2013-03-16 20:05:00,
2013-03-16 15:10:00,26.9,15.6,30.13,West,273,2.0,6.0,62,0.01,,---,0.05,670.00,VWS V14.01,2013-03-16 20:10:00,
2013-03-16 15:15:00,27.5,15.8,30.13,West,262,0.0,5.0,61,0.01,,---,0.05,659.00,VWS V14.01,2013-03-16 20:15:00,
2013-03-16 15:20:00,27.7,15.3,30.13,WSW,257,6.0,9.0,59,0.01,,---,0.05,654.00,VWS V14.01,2013-03-16 20:20:00,
2013-03-16 15:25:00,27.0,14.6,30.13,NW,314,3.0,10.0,59,0.01,,---,0.05,645.00,VWS V14.01,2013-03-16 20:25:00,
2013-03-16 15:30:00,27.2,15.2,30.13,West,276,1.0,6.0,60,0.01,,---,0.05,636.00,VWS V14.01,2013-03-16 20:30:00,
2013-03-16 15:35:00,27.3,15.3,30.12,WSW,238,14.0,14.0,60,0.00,,---,0.05,626.00,VWS V14.01,2013-03-16 20:35:00,
2013-03-16 15:40:00,27.0,13.8,30.13,WSW,255,4.0,14.0,57,0.00,,---,0.05,613.00,VWS V14.01,2013-03-16 20:40:00,
2013-03-16 15:45:00,26.8,14.4,30.13,WSW,244,11.0,11.0,59,0.01,,---,0.06,603.00,VWS V14.01,2013-03-16 20:45:00,
2013-03-16 15:50:00,27.0,14.2,30.13,NW,316,5.0,11.0,58,0.01,,---,0.06,587.00,VWS V14.01,2013-03-16 20:50:00,
2013-03-16 15:55:00,27.1,14.3,30.13,North,360,8.0,8.0,58,0.01,,---,0.06,575.00,VWS V14.01,2013-03-16 20:55:00,
2013-03-16 16:00:00,27.0,13.8,30.13,NW,318,6.0,9.0,57,0.01,,---,0.06,559.00,VWS V14.01,2013-03-16 21:00:00,
2013-03-16 16:05:00,26.9,14.1,30.12,West,275,11.0,11.0,58,0.01,,---,0.06,550.00,VWS V14.01,2013-03-16 21:05:00,
2013-03-16 16:10:00,26.8,13.2,30.12,WSW,250,2.0,11.0,56,0.01,,---,0.06,497.00,VWS V14.01,2013-03-16 21:10:00,
2013-03-16 16:15:00,26.5,12.9,30.13,WNW,296,1.0,7.0,56,0.01,,---,0.06,468.00,VWS V14.01,2013-03-16 21:15:00,
2013-03-16 16:20:00,26.8,14.0,30.12,West,261,5.0,5.0,58,0.01,,---,0.06,482.00,VWS V14.01,2013-03-16 21:20:00,
2013-03-16 16:25:00,26.8,13.6,30.12,WSW,247,1.0,10.0,57,0.01,,---,0.06,483.00,VWS V14.01,2013-03-16 21:25:00,
2013-03-16 16:30:00,27.0,13.8,30.12,West,263,2.0,7.0,57,0.01,,---,0.06,489.00,VWS V14.01,2013-03-16 21:30:00,
2013-03-16 16:35:00,27.1,13.5,30.12,WNW,291,4.0,9.0,56,0.01,,---,0.06,424.00,VWS V14.01,2013-03-16 21:35:00,
2013-03-16 16:40:00,26.9,12.9,30.12,WSW,241,2.0,12.0,55,0.01,,---,0.06,413.00,VWS V14.01,2013-03-16 21:40:00,
2013-03-16 16:45:00,26.0,12.1,30.12,WNW,300,4.0,10.0,55,0.01,,---,0.06,413.00,VWS V14.01,2013-03-16 21:45:00,
2013-03-16 16:50:00,26.0,12.9,30.12,WSW,246,5.0,9.0,57,0.00,,---,0.06,394.00,VWS V14.01,2013-03-16 21:50:00,
2013-03-16 16:55:00,26.1,13.0,30.12,WSW,240,2.0,8.0,57,0.00,,---,0.06,390.00,VWS V14.01,2013-03-16 21:55:00,
2013-03-16 17:00:00,26.0,12.5,30.12,West,277,2.0,10.0,56,0.00,,---,0.06,378.00,VWS V14.01,2013-03-16 22:00:00,
2013-03-16 17:05:00,25.9,12.4,30.12,WSW,243,2.0,10.0,56,0.00,,---,0.06,313.00,VWS V14.01,2013-03-16 22:05:00,
2013-03-16 17:10:00,25.8,12.3,30.12,WSW,248,10.0,10.0,56,0.00,,---,0.06,352.00,VWS V14.01,2013-03-16 22:10:00,
2013-03-16 17:15:00,25.5,12.0,30.11,WSW,256,3.0,10.0,56,0.00,,---,0.06,364.00,VWS V14.01,2013-03-16 22:15:00,
2013-03-16 17:20:00,25.6,12.1,30.11,WSW,250,3.0,10.0,56,0.00,,---,0.06,336.00,VWS V14.01,2013-03-16 22:20:00,
2013-03-16 17:25:00,25.6,12.1,30.11,NW,321,3.0,10.0,56,0.00,,---,0.06,313.00,VWS V14.01,2013-03-16 22:25:00,
2013-03-16 17:30:00,25.4,11.9,30.12,West,263,2.0,12.0,56,0.00,,---,0.06,316.00,VWS V14.01,2013-03-16 22:30:00,
2013-03-16 17:35:00,25.4,11.9,30.12,NW,322,4.0,7.0,56,0.00,,---,0.06,287.00,VWS V14.01,2013-03-16 22:35:00,
2013-03-16 17:40:00,25.3,11.8,30.11,NNW,329,2.0,8.0,56,0.00,,---,0.06,244.00,VWS V14.01,2013-03-16 22:40:00,
2013-03-16 17:45:00,24.7,11.2,30.11,WNW,295,4.0,10.0,56,0.00,,---,0.06,190.00,VWS V14.01,2013-03-16 22:45:00,
2013-03-16 17:50:00,24.3,10.9,30.12,NNW,342,2.0,6.0,56,0.00,,---,0.06,243.00,VWS V14.01,2013-03-16 22:50:00,
2013-03-16 17:55:00,23.8,10.4,30.12,NW,315,3.0,10.0,56,0.00,,---,0.06,239.00,VWS V14.01,2013-03-16 22:55:00,
2013-03-16 18:00:00,23.4,10.0,30.12,NNW,330,6.0,10.0,56,0.00,,---,0.06,204.00,VWS V14.01,2013-03-16 23:00:00,
2013-03-16 18:05:00,22.9,9.6,30.12,NNW,344,3.0,10.0,56,0.00,,---,0.06,193.00,VWS V14.01,2013-03-16 23:05:00,
2013-03-16 18:10:00,22.6,9.7,30.12,NW,317,3.0,10.0,57,0.00,,---,0.06,158.00,VWS V14.01,2013-03-16 23:10:00,
2013-03-16 18:15:00,22.3,9.0,30.13,NW,306,4.0,11.0,56,0.00,,---,0.06,135.00,VWS V14.01,2013-03-16 23:15:00,
2013-03-16 18:20:00,22.1,8.8,30.13,NW,321,3.0,7.0,56,0.00,,---,0.06,107.00,VWS V14.01,2013-03-16 23:20:00,
2013-03-16 18:25:00,22.0,8.7,30.14,North,360,6.0,11.0,56,0.00,,---,0.06,58.00,VWS V14.01,2013-03-16 23:25:00,
2013-03-16 18:30:00,21.6,8.7,30.14,NNW,327,10.0,10.0,57,0.00,,---,0.06,49.00,VWS V14.01,2013-03-16 23:30:00,
2013-03-16 18:35:00,21.1,8.3,30.14,NNW,348,4.0,11.0,57,0.00,,---,0.06,46.00,VWS V14.01,2013-03-16 23:35:00,
2013-03-16 18:40:00,20.8,8.4,30.14,NNW,334,2.0,6.0,58,0.00,,---,0.06,46.00,VWS V14.01,2013-03-16 23:40:00,
2013-03-16 18:45:00,20.8,9.1,30.15,NW,322,0.0,5.0,60,0.00,,---,0.06,35.00,VWS V14.01,2013-03-16 23:45:00,
2013-03-16 18:50:00,20.8,9.5,30.15,WNW,282,1.0,4.0,61,0.00,,---,0.06,33.00,VWS V14.01,2013-03-16 23:50:00,
2013-03-16 18:55:00,20.6,9.3,30.15,West,279,3.0,4.0,61,0.00,,---,0.06,25.00,VWS V14.01,2013-03-16 23:55:00,
2013-03-16 19:00:00,20.4,9.1,30.15,WNW,288,2.0,4.0,61,0.00,,---,0.06,26.00,VWS V14.01,2013-03-17 00:00:00,
2013-03-16 19:05:00,20.3,9.0,30.15,West,278,1.0,4.0,61,0.00,,---,0.06,18.00,VWS V14.01,2013-03-17 00:05:00,
2013-03-16 19:10:00,19.9,8.6,30.16,NW,313,0.0,5.0,61,0.00,,---,0.06,11.00,VWS V14.01,2013-03-17 00:10:00,
2013-03-16 19:15:00,19.7,8.4,30.16,West,267,2.0,4.0,61,0.00,,---,0.06,7.00,VWS V14.01,2013-03-17 00:15:00,
2013-03-16 19:20:00,19.5,8.3,30.17,WSW,252,1.0,4.0,61,0.00,,---,0.06,0.00,VWS V14.01,2013-03-17 00:20:00,
2013-03-16 19:25:00,19.1,8.2,30.17,West,264,4.0,4.0,62,0.00,,---,0.06,0.00,VWS V14.01,2013-03-17 00:25:00,
2013-03-16 19:30:00,18.8,7.9,30.18,West,279,1.0,4.0,62,0.00,,---,0.06,0.00,VWS V14.01,2013-03-17 00:30:00,
2013-03-16 19:35:00,18.5,7.7,30.18,WSW,248,2.0,5.0,62,0.00,,---,0.06,0.00,VWS V14.01,2013-03-17 00:35:00,
2013-03-16 19:40:00,18.3,7.5,30.18,WSW,253,2.0,4.0,62,0.00,,---,0.06,0.00,VWS V14.01,2013-03-17 00:40:00,
2013-03-16 19:45:00,18.1,7.3,30.19,West,281,2.0,5.0,62,0.00,,---,0.06,0.00,VWS V14.01,2013-03-17 00:45:00,
2013-03-16 19:50:00,17.9,7.4,30.19,NW,309,1.0,4.0,63,0.00,,---,0.06,0.00,VWS V14.01,2013-03-17 00:50:00,
2013-03-16 19:55:00,17.7,7.3,30.19,WNW,302,3.0,5.0,63,0.00,,---,0.06,0.00,VWS V14.01,2013-03-17 00:55:00,
2013-03-16 20:00:00,17.5,7.1,30.20,WNW,298,1.0,3.0,63,0.00,,---,0.06,0.00,VWS V14.01,2013-03-17 01:00:00,
2013-03-16 20:05:00,17.3,7.2,30.20,WNW,296,3.0,3.0,64,0.00,,---,0.06,0.00,VWS V14.01,2013-03-17 01:05:00,
2013-03-16 20:10:00,17.1,7.0,30.20,West,276,1.0,3.0,64,0.00,,---,0.06,0.00,VWS V14.01,2013-03-17 01:10:00,
2013-03-16 20:15:00,17.0,6.9,30.20,West,276,1.0,2.0,64,0.00,,---,0.06,0.00,VWS V14.01,2013-03-17 01:15:00,
2013-03-16 20:20:00,16.8,6.8,30.20,West,264,2.0,3.0,64,0.00,,---,0.06,0.00,VWS V14.01,2013-03-17 01:20:00,
2013-03-16 20:25:00,16.7,7.0,30.21,West,262,0.0,3.0,65,0.00,,---,0.06,0.00,VWS V14.01,2013-03-17 01:25:00,
2013-03-16 20:30:00,16.5,6.8,30.21,West,259,0.0,3.0,65,0.00,,---,0.06,0.00,VWS V14.01,2013-03-17 01:30:00,
2013-03-16 20:35:00,16.4,6.7,30.21,West,259,2.0,3.0,65,0.00,,---,0.06,0.00,VWS V14.01,2013-03-17 01:35:00,
2013-03-16 20:40:00,16.3,6.6,30.22,WSW,249,3.0,4.0,65,0.00,,---,0.06,0.00,VWS V14.01,2013-03-17 01:40:00,
2013-03-16 20:45:00,16.2,6.5,30.22,WSW,250,1.0,4.0,65,0.00,,---,0.06,0.00,VWS V14.01,2013-03-17 01:45:00,
2013-03-16 20:50:00,16.0,6.3,30.22,WSW,252,2.0,4.0,65,0.00,,---,0.06,0.00,VWS V14.01,2013-03-17 01:50:00,
2013-03-16 20:55:00,16.0,6.3,30.22,WSW,257,0.0,4.0,65,0.00,,---,0.06,0.00,VWS V14.01,2013-03-17 01:55:00,
2013-03-16 21:00:00,15.8,6.1,30.22,WSW,257,0.0,3.0,65,0.00,,---,0.06,0.00,VWS V14.01,2013-03-17 02:00:00,
2013-03-16 21:05:00,15.7,6.4,30.22,WSW,257,0.0,2.0,66,0.00,,---,0.06,0.00,VWS V14.01,2013-03-17 02:05:00,
2013-03-16 21:10:00,15.5,6.2,30.23,West,265,0.0,3.0,66,0.00,,---,0.06,0.00,VWS V14.01,2013-03-17 02:10:00,
2013-03-16 21:15:00,15.3,6.0,30.23,NW,325,5.0,5.0,66,0.00,,---,0.06,0.00,VWS V14.01,2013-03-17 02:15:00,
2013-03-16 21:20:00,15.2,5.9,30.23,NW,310,3.0,5.0,66,0.00,,---,0.06,0.00,VWS V14.01,2013-03-17 02:20:00,
2013-03-16 21:25:00,15.2,5.9,30.23,NW,306,3.0,7.0,66,0.00,,---,0.06,0.00,VWS V14.01,2013-03-17 02:25:00,
2013-03-16 21:30:00,15.1,5.8,30.23,NW,309,1.0,5.0,66,0.00,,---,0.06,0.00,VWS V14.01,2013-03-17 02:30:00,
2013-03-16 21:35:00,15.0,5.7,30.23,NNW,327,2.0,5.0,66,0.00,,---,0.06,0.00,VWS V14.01,2013-03-17 02:35:00,
2013-03-16 21:40:00,14.9,5.6,30.23,NW,313,5.0,6.0,66,0.00,,---,0.06,0.00,VWS V14.01,2013-03-17 02:40:00,
2013-03-16 21:45:00,14.8,5.5,30.23,NW,313,3.0,5.0,66,0.00,,---,0.06,0.00,VWS V14.01,2013-03-17 02:45:00,
2013-03-16 21:50:00,14.7,5.4,30.23,WSW,254,2.0,3.0,66,0.00,,---,0.06,0.00,VWS V14.01,2013-03-17 02:50:00,
2013-03-16 21:55:00,14.5,5.2,30.23,West,267,0.0,3.0,66,0.00,,---,0.06,0.00,VWS V14.01,2013-03-17 02:55:00,
2013-03-16 22:00:00,14.3,5.0,30.24,West,269,2.0,3.0,66,0.00,,---,0.06,0.00,VWS V14.01,2013-03-17 03:00:00,
2013-03-16 22:05:00,14.2,4.9,30.23,NW,304,4.0,4.0,66,0.00,,---,0.06,0.00,VWS V14.01,2013-03-17 03:05:00,
2013-03-16 22:10:00,14.1,5.2,30.23,NW,304,2.0,4.0,67,0.00,,---,0.06,0.00,VWS V14.01,2013-03-17 03:10:00,
2013-03-16 22:15:00,14.0,5.1,30.23,NW,311,1.0,6.0,67,0.00,,---,0.06,0.00,VWS V14.01,2013-03-17 03:15:00,
2013-03-16 22:20:00,14.0,5.1,30.23,NW,325,3.0,9.0,67,0.00,,---,0.06,0.00,VWS V14.01,2013-03-17 03:20:00,
2013-03-16 22:25:00,13.9,5.0,30.23,NW,317,2.0,5.0,67,0.00,,---,0.06,0.00,VWS V14.01,2013-03-17 03:25:00,
2013-03-16 22:30:00,13.9,5.0,30.24,NW,317,4.0,4.0,67,0.00,,---,0.06,0.00,VWS V14.01,2013-03-17 03:30:00,
2013-03-16 22:35:00,13.8,4.9,30.24,NW,323,1.0,6.0,67,0.00,,---,0.06,0.00,VWS V14.01,2013-03-17 03:35:00,
2013-03-16 22:40:00,13.8,4.9,30.24,NW,314,2.0,8.0,67,0.00,,---,0.06,0.00,VWS V14.01,2013-03-17 03:40:00,
2013-03-16 22:45:00,13.7,4.5,30.25,NW,314,1.0,9.0,66,0.00,,---,0.06,0.00,VWS V14.01,2013-03-17 03:45:00,
2013-03-16 22:50:00,13.7,4.5,30.25,NW,321,2.0,7.0,66,0.00,,---,0.06,0.00,VWS V14.01,2013-03-17 03:50:00,
2013-03-16 22:55:00,13.6,4.4,30.26,NW,325,2.0,6.0,66,0.00,,---,0.06,0.00,VWS V14.01,2013-03-17 03:55:00,
2013-03-16 23:00:00,13.5,4.3,30.25,NW,311,5.0,11.0,66,0.00,,---,0.06,0.00,VWS V14.01,2013-03-17 04:00:00,
2013-03-16 23:05:00,13.3,3.8,30.25,NW,325,3.0,7.0,65,0.00,,---,0.06,0.00,VWS V14.01,2013-03-17 04:05:00,
2013-03-16 23:10:00,13.1,3.6,30.26,NNW,328,3.0,10.0,65,0.00,,---,0.06,0.00,VWS V14.01,2013-03-17 04:10:00,
2013-03-16 23:15:00,12.9,3.7,30.26,NW,309,5.0,6.0,66,0.00,,---,0.06,0.00,VWS V14.01,2013-03-17 04:15:00,
2013-03-16 23:20:00,12.7,3.5,30.26,NW,317,2.0,5.0,66,0.00,,---,0.06,0.00,VWS V14.01,2013-03-17 04:20:00,
2013-03-16 23:25:00,12.4,3.2,30.26,NNW,341,4.0,7.0,66,0.00,,---,0.06,0.00,VWS V14.01,2013-03-17 04:25:00,
2013-03-16 23:30:00,12.2,3.0,30.26,NNW,327,3.0,5.0,66,0.00,,---,0.06,0.00,VWS V14.01,2013-03-17 04:30:00,
2013-03-16 23:35:00,12.1,3.3,30.26,NW,322,2.0,6.0,67,0.00,,---,0.06,0.00,VWS V14.01,2013-03-17 04:35:00,
2013-03-16 23:40:00,11.9,3.1,30.27,NW,307,2.0,5.0,67,0.00,,---,0.06,0.00,VWS V14.01,2013-03-17 04:40:00,
2013-03-16 23:45:00,11.7,2.9,30.27,NW,317,2.0,4.0,67,0.00,,---,0.06,0.00,VWS V14.01,2013-03-17 04:45:00,
2013-03-16 23:50:00,11.6,3.1,30.27,NW,311,1.0,5.0,68,0.00,,---,0.06,0.00,VWS V14.01,2013-03-17 04:50:00,
2013-03-16 23:55:00,11.4,2.9,30.27,NW,311,2.0,4.0,68,0.00,,---,0.06,0.00,VWS V14.01,2013-03-17 04:55:00,